Regional Weather Roundup
Issued by NWS

Home | Current Version | Previous Version | Graphics & Text | Print | Product List | Glossary Off
Versions: 1 2 3 4 5 6 7 8 9 10 11 12 13 14 15 16 17 18 19 20 21 22 23 24 25 26 27 28 29 30 31 32 33 34 35 36 37 38 39 40 41 42 43 44 45 46 47 48 49 50

000
ASUS43 KMKX 291300
RWRWI

WISCONSIN REGIONAL WEATHER ROUNDUP
NATIONAL WEATHER SERVICE MILWAUKEE/SULLIVAN WI
800 AM CDT SAT APR 29 2017

NOTE: "FAIR" INDICATES FEW OR NO CLOUDS BELOW 12,000 FEET WITH NO
SIGNIFICANT WEATHER AND/OR OBSTRUCTIONS TO VISIBILITY.

WIZ001-002-006>008-014>016-023>028-291400-
NORTHWEST WISCONSIN

CITY           SKY/WX    TMP DP  RH WIND       PRES   REMARKS
SUPERIOR ARPT  SUNNY     33  28  83 S5        30.32R WCI  28
ASHLAND        SUNNY     35  28  75 S6        30.35R WCI  30
HAYWARD        SUNNY     35  28  75 CALM      30.31R
SIREN          MOSUNNY   35  30  83 SE6       30.30R WCI  30
CUMBERLAND     SUNNY     34  28  80 SE5       30.29F WCI  30
RICE LAKE      SUNNY     34  30  84 CALM      30.33R
CHETEK         NOT AVBL
LADYSMITH      SUNNY     34  28  77 CALM      30.33R
EAU CLAIRE     NOT AVBL
MENOMONIE      SUNNY     36  28  72 NE5       30.29F WCI  32
NEW RICHMOND   SUNNY     37  28  71 E6        30.31R WCI  32
OSCEOLA        SUNNY     37  29  73 E5        30.35R WCI  34
$$

WIZ003>005-009-010-017-018-291400-
NORTH CENTRAL WISCONSIN

CITY           SKY/WX    TMP DP  RH WIND       PRES   REMARKS
MANITOWISH WTR SUNNY     33  26  77 NE5       30.29R WCI  28
ARBOR VITAE    SUNNY     36  28  71 CALM      30.29R
WOODRUFF       SUNNY     36  28  71 CALM      30.29R
RHINELANDER    SUNNY     35  26  69 VRB3      30.30R
EAGLE RIVER    SUNNY     33  22  64 NE7       30.29R WCI  27
LAND O LAKES   SUNNY     33  24  68 NE8       30.30R WCI  26
PHILLIPS       CLOUDY    32  26  77 CALM      30.30R
TOMAHAWK       SUNNY     32  25  74 CALM      30.30R
MEDFORD        SUNNY     33  26  74 NE6       30.28R WCI  28
MERRILL        SUNNY     33  27  79 NE3       30.30R
$$

WIZ029-030-035-036-043>047-291400-
CENTRAL WISCONSIN

CITY           SKY/WX    TMP DP  RH WIND       PRES   REMARKS
WAUSAU         SUNNY     35  25  66 NE8       30.26S WCI  29
MOSINEE        MOSUNNY   34  27  75 NE12      30.28S WCI  25
MARSHFIELD     CLOUDY    36  26  67 NE12      30.24F WCI  28
STEVENS POINT  SUNNY     34  27  73 NE9       30.28S WCI  27
WAUPACA        SUNNY     39  29  66 N10       30.28R WCI  32
WAUTOMA        MOSUNNY   39  27  62 MISG      30.26F
WISC RAPIDS    CLOUDY    38  26  62 NE12G23   30.27S WCI  30
CAMP DOUGLAS   NOT AVBL
$$

WIZ011>013-019>022-031-037>040-048>050-291400-
NORTHEAST WISCONSIN

CITY           SKY/WX    TMP DP  RH WIND       PRES   REMARKS
ANTIGO         SUNNY     33  25  72 NE5       30.29R WCI  28
SHAWANO        SUNNY     38  30  71 N10G16    30.29R WCI  31
OCONTO         NOT AVBL
STURGEON BAY   MOSUNNY   39  28  64 N16G22    30.28R WCI  30
GREEN BAY      CLOUDY    40  29  64 NE14      30.28R WCI  32
MANITOWOC      NOT AVBL
APPLETON       MOSUNNY   37  27  65 N13       30.25R WCI  29
CLINTONVILLE   SUNNY     36  28  75 NE8       30.29R WCI  29
OSHKOSH        CLOUDY    39  29  67 NE15      30.25R WCI  31
$$

WIZ032>034-041-042-053>061-291400-
SOUTHWEST WISCONSIN

CITY           SKY/WX    TMP DP  RH WIND       PRES   REMARKS
LA CROSSE      CLOUDY    41  27  57 E14G20    30.26R
SPARTA         CLOUDY    37  28  69 NE18G25   30.25F WCI  27
VIROQUA        CLOUDY    37  31  77 NE13      30.21R WCI  29
BOSCOBEL       CLOUDY    44  33  65 NE7       30.22R
PRAIRIE DU CHI CLOUDY    43  31  62 NE7G17    30.20R
PLATTEVILLE    CLOUDY    43  36  76 NE14G21   30.17F
$$

WIZ056-057-062-063-064-067-068-291400-
SOUTH CENTRAL WISCONSIN

CITY           SKY/WX    TMP DP  RH WIND       PRES   REMARKS
REEDSBURG      CLOUDY    38  28  67 NE14      30.24R WCI  30
BARABOO/DELLS  CLOUDY    37  28  68 NE13      30.24S WCI  29
LONE ROCK      NOT AVBL
MINERAL POINT  CLOUDY    43  34  70 NE12G17   30.18S
MADISON        CLOUDY    40  32  73 NE18      30.22R WCI  31
MIDDLETON      CLOUDY    42  34  72 NE14      30.22R
WATERTOWN      CLOUDY    41  33  73 NE13G18   30.22R
MONROE         PTSUNNY   43  36  75 NE17      30.18R
JANESVILLE     MOSUNNY   45  34  65 E15       30.18R
$$

WIZ051-052-058>065-066-070>072-291400-
SOUTHEAST WISCONSIN

CITY           SKY/WX    TMP DP  RH WIND       PRES   REMARKS
MILWAUKEE      PTSUNNY   41  33  73 N18G28    30.21R
WAUKESHA       MOSUNNY   37  30  75 NE12G22   30.22R WCI  30
MILWAUKEE/TIMM SUNNY     39  28  65 N16G24    30.23S WCI  30
RACINE         CLOUDY    40  32  73 NE21G30   30.22R WCI  30
KENOSHA        CLOUDY    42  34  73 NE15G24   30.19R
FOND DU LAC    CLOUDY    40  26  57 NE17G25   30.26R WCI  31
SHEBOYGAN      SUNNY     40  33  76 N12       30.27R WCI  33
WEST BEND      MOSUNNY   37  30  75 NE9       30.25R WCI  31
JUNEAU         CLOUDY    38  30  72 N14G20    30.25R WCI  30
$$

LSZ147-162-291400-
LAKE SUPERIOR

STATION/POSITION TIME  TEMP    WIND        PRES    WAVE
                       AIR SEA DIR/SP/G            HT/PER
                 (UTC) (F)     (DEG/KT/KT) (MB)    (FT/S)
DEVILS ISLAND    1200   36      30/  9/ 10 1026.2R
SAXON HARBOR     1240   32     190/  4/  6 1027.1R
$$

LMZ867-665-643>646-291400-
LAKE MICHIGAN

STATION/POSITION TIME  TEMP    WIND        PRES    WAVE
                       AIR SEA DIR/SP/G            HT/PER
                 (UTC) (F)     (DEG/KT/KT) (MB)    (FT/S)
CHAMBERS ISLAND  1240   38     330/ 11/ 13 1025.4R
N MID LAKE BUOY  1150   36 37  340/ 12/ 12 1025.4F   1/ 4
NORTHPORT PIER   1240   37     360/ 13/ 16 1025.4R
SISTER BAY       1121   36      30/  9/ 11   N/A
KEWAUNEE LAKESHO 1230   38     360/  7/ 12 1024.1R
SHEBOYGAN LAKESH 1200   38      20/ 23/ 27 1023.3R
PORT WASHINGTON  1240   41      10/  9/ 19 1025.1R
MILWAUKEE LAKESH 1230   40      20/ 19/ 23   N/A
S MID LAKE BUOY  1150   42 41   10/ 19/ 21 1021.4R   3/ 5
KENOSHA   LAKESH 1200   43      30/ 25/ 31 1021.7
$$

TC  - TEMPERATURE IN CELSIUS
VSB - VISIBILITY IN STATUTE MILES
WCI - WIND CHILL INDEX
HX  - HEAT INDEX





USA.gov is the U.S. government's official web portal to all federal, state and local government web resources and services.